Time,TemperatureF,DewpointF,PressureIn,WindDirection,WindDirectionDegrees,WindSpeedMPH,WindSpeedGustMPH,Humidity,HourlyPrecipIn,Conditions,Clouds,dailyrainin,SolarRadiationWatts/m^2,SoftwareType,DateUTC
2013-02-03 00:21:00,29.0,20.0,-100.00,NNE,20,4.0,7.0,70,0.00,,,0.00,0.000000,,2013-02-03 07:21:00,
2013-02-03 00:31:00,29.0,20.0,-100.00,NNE,20,4.0,7.0,70,0.00,,,0.00,0.000000,,2013-02-03 07:31:00,
2013-02-03 00:41:00,29.0,20.0,-100.00,NNE,20,4.0,7.0,70,0.00,,,0.00,0.000000,,2013-02-03 07:41:00,
2013-02-03 00:52:00,29.0,20.0,-100.00,NNE,20,4.0,7.0,70,0.00,,,0.00,0.000000,,2013-02-03 07:52:00,
2013-02-03 01:22:00,29.0,21.0,-100.00,North,353,3.0,6.0,71,0.00,,,0.00,0.000000,,2013-02-03 08:22:00,
2013-02-03 01:32:00,29.0,21.0,-100.00,North,353,3.0,6.0,71,0.00,,,0.00,0.000000,,2013-02-03 08:32:00,
2013-02-03 01:41:00,29.0,21.0,-100.00,North,353,3.0,6.0,71,0.00,,,0.00,0.000000,,2013-02-03 08:41:00,
2013-02-03 01:51:00,29.0,21.0,-100.00,North,353,3.0,6.0,71,0.00,,,0.00,0.000000,,2013-02-03 08:51:00,
2013-02-03 02:21:00,29.0,22.0,-100.00,North,8,1.0,5.0,74,0.00,,,0.00,0.000000,,2013-02-03 09:21:00,
2013-02-03 02:31:00,29.0,22.0,-100.00,North,8,1.0,5.0,74,0.00,,,0.00,0.000000,,2013-02-03 09:31:00,
2013-02-03 02:41:00,29.0,22.0,-100.00,North,8,1.0,5.0,74,0.00,,,0.00,0.000000,,2013-02-03 09:41:00,
2013-02-03 02:51:00,29.0,22.0,-100.00,North,8,1.0,5.0,74,0.00,,,0.00,0.000000,,2013-02-03 09:51:00,
2013-02-03 03:21:00,29.0,21.0,-100.00,ENE,72,1.0,4.0,73,0.00,,,0.00,0.000000,,2013-02-03 10:21:00,
2013-02-03 03:31:00,29.0,21.0,-100.00,ENE,72,1.0,4.0,73,0.00,,,0.00,0.000000,,2013-02-03 10:31:00,
2013-02-03 03:41:00,29.0,21.0,-100.00,ENE,72,1.0,4.0,73,0.00,,,0.00,0.000000,,2013-02-03 10:41:00,
2013-02-03 03:52:00,29.0,21.0,-100.00,ENE,72,1.0,4.0,73,0.00,,,0.00,0.000000,,2013-02-03 10:52:00,
2013-02-03 04:22:00,29.0,21.0,-100.00,NE,45,2.0,4.0,71,0.00,,,0.00,0.000000,,2013-02-03 11:22:00,
2013-02-03 04:31:00,29.0,21.0,-100.00,NE,45,2.0,4.0,71,0.00,,,0.00,0.000000,,2013-02-03 11:31:00,
2013-02-03 04:41:00,29.0,21.0,-100.00,NE,45,2.0,4.0,71,0.00,,,0.00,0.000000,,2013-02-03 11:41:00,
2013-02-03 04:52:00,29.0,21.0,-100.00,NE,45,2.0,4.0,71,0.00,,,0.00,0.000000,,2013-02-03 11:52:00,
2013-02-03 05:22:00,28.0,20.0,-100.00,North,3,3.0,5.0,72,0.00,,,-99.99,0.000000,,2013-02-03 12:22:00,
2013-02-03 05:32:00,28.0,20.0,-100.00,North,3,3.0,5.0,72,0.00,,,-99.99,0.000000,,2013-02-03 12:32:00,
2013-02-03 05:42:00,28.0,20.0,-100.00,North,3,3.0,5.0,72,0.00,,,-99.99,0.000000,,2013-02-03 12:42:00,
2013-02-03 05:52:00,28.0,20.0,-100.00,North,3,3.0,5.0,72,0.00,,,-99.99,0.000000,,2013-02-03 12:52:00,
2013-02-03 06:21:00,28.0,20.0,-100.00,NNE,32,1.0,5.0,72,0.00,,,0.00,0.000000,,2013-02-03 13:21:00,
2013-02-03 06:32:00,28.0,20.0,-100.00,NNE,32,1.0,5.0,72,0.00,,,0.00,0.000000,,2013-02-03 13:32:00,
2013-02-03 06:41:00,28.0,20.0,-100.00,NNE,32,1.0,5.0,72,0.00,,,0.00,0.000000,,2013-02-03 13:41:00,
2013-02-03 06:52:00,28.0,20.0,-100.00,NNE,32,1.0,5.0,72,0.00,,,0.00,0.000000,,2013-02-03 13:52:00,
2013-02-03 07:21:00,27.0,19.0,-100.00,North,2,4.0,6.0,71,0.00,,,0.00,0.000000,,2013-02-03 14:21:00,
2013-02-03 07:32:00,27.0,19.0,-100.00,North,2,4.0,6.0,71,0.00,,,0.00,0.000000,,2013-02-03 14:32:00,
2013-02-03 07:42:00,27.0,19.0,-100.00,North,2,4.0,6.0,71,0.00,,,0.00,0.000000,,2013-02-03 14:42:00,
2013-02-03 07:52:00,27.0,19.0,-100.00,North,2,4.0,6.0,71,0.00,,,0.00,0.000000,,2013-02-03 14:52:00,
2013-02-03 08:22:00,29.0,19.0,-100.00,North,5,2.0,4.0,65,0.00,,,0.00,28.000000,,2013-02-03 15:22:00,
2013-02-03 08:32:00,29.0,19.0,-100.00,North,5,2.0,4.0,65,0.00,,,0.00,28.000000,,2013-02-03 15:32:00,
2013-02-03 08:41:00,29.0,19.0,-100.00,North,5,2.0,4.0,65,0.00,,,0.00,28.000000,,2013-02-03 15:41:00,
2013-02-03 08:51:00,29.0,19.0,-100.00,North,5,2.0,4.0,65,0.00,,,0.00,28.000000,,2013-02-03 15:51:00,
2013-02-03 09:21:00,31.0,21.0,-100.00,SSE,147,2.0,4.0,65,-99.99,,,0.00,123.000000,,2013-02-03 16:21:00,
2013-02-03 09:32:00,31.0,21.0,-100.00,SSE,147,2.0,4.0,65,-99.99,,,0.00,123.000000,,2013-02-03 16:32:00,
2013-02-03 09:41:00,31.0,21.0,-100.00,SSE,147,2.0,4.0,65,-99.99,,,0.00,123.000000,,2013-02-03 16:41:00,
2013-02-03 09:52:00,31.0,21.0,-100.00,SSE,147,2.0,4.0,65,-99.99,,,0.00,123.000000,,2013-02-03 16:52:00,
2013-02-03 10:21:00,33.0,21.0,-100.00,ESE,110,0.0,3.0,60,0.00,,,0.00,178.000000,,2013-02-03 17:21:00,
2013-02-03 10:31:00,33.0,21.0,-100.00,ESE,110,0.0,3.0,60,0.00,,,0.00,178.000000,,2013-02-03 17:31:00,
2013-02-03 10:42:00,33.0,21.0,-100.00,ESE,110,0.0,3.0,60,0.00,,,0.00,178.000000,,2013-02-03 17:42:00,
2013-02-03 10:52:00,33.0,21.0,-100.00,ESE,110,0.0,3.0,60,0.00,,,0.00,178.000000,,2013-02-03 17:52:00,
2013-02-03 11:23:00,35.0,22.0,-100.00,SSW,212,3.0,6.0,58,0.00,,,0.00,263.000000,,2013-02-03 18:23:00,
2013-02-03 11:32:00,35.0,22.0,-100.00,SSW,212,3.0,6.0,58,0.00,,,0.00,263.000000,,2013-02-03 18:32:00,
2013-02-03 11:41:00,35.0,22.0,-100.00,SSW,212,3.0,6.0,58,0.00,,,0.00,263.000000,,2013-02-03 18:41:00,
2013-02-03 11:51:00,35.0,22.0,-100.00,SSW,212,3.0,6.0,58,0.00,,,0.00,263.000000,,2013-02-03 18:51:00,
2013-02-03 12:22:00,39.0,20.0,-100.00,South,191,3.0,6.0,47,0.00,,,0.00,266.000000,,2013-02-03 19:22:00,
2013-02-03 12:31:00,39.0,20.0,-100.00,South,191,3.0,6.0,47,0.00,,,0.00,266.000000,,2013-02-03 19:31:00,
2013-02-03 12:41:00,39.0,20.0,-100.00,South,191,3.0,6.0,47,0.00,,,0.00,266.000000,,2013-02-03 19:41:00,
2013-02-03 12:51:00,39.0,20.0,-100.00,South,191,3.0,6.0,47,0.00,,,0.00,266.000000,,2013-02-03 19:51:00,
2013-02-03 13:21:00,40.0,17.0,-100.00,West,267,3.0,6.0,39,0.00,,,0.00,311.000000,,2013-02-03 20:21:00,
2013-02-03 13:32:00,40.0,17.0,-100.00,West,267,3.0,6.0,39,0.00,,,0.00,311.000000,,2013-02-03 20:32:00,
2013-02-03 13:42:00,40.0,17.0,-100.00,West,267,3.0,6.0,39,0.00,,,0.00,311.000000,,2013-02-03 20:42:00,
2013-02-03 13:52:00,40.0,17.0,-100.00,West,267,3.0,6.0,39,0.00,,,0.00,311.000000,,2013-02-03 20:52:00,
2013-02-03 14:21:00,40.0,18.0,-100.00,SW,218,5.0,11.0,41,0.00,,,0.00,215.000000,,2013-02-03 21:21:00,
2013-02-03 14:32:00,40.0,18.0,-100.00,SW,218,5.0,11.0,41,0.00,,,0.00,215.000000,,2013-02-03 21:32:00,
2013-02-03 14:42:00,40.0,18.0,-100.00,SW,218,5.0,11.0,41,0.00,,,0.00,215.000000,,2013-02-03 21:42:00,
2013-02-03 14:51:00,40.0,18.0,-100.00,SW,218,5.0,11.0,41,0.00,,,0.00,215.000000,,2013-02-03 21:51:00,
2013-02-03 15:21:00,39.0,20.0,-100.00,WNW,286,5.0,12.0,47,0.00,,,0.00,181.000000,,2013-02-03 22:21:00,
2013-02-03 15:32:00,39.0,20.0,-100.00,WNW,286,5.0,12.0,47,0.00,,,0.00,181.000000,,2013-02-03 22:32:00,
2013-02-03 15:41:00,39.0,20.0,-100.00,WNW,286,5.0,12.0,47,0.00,,,0.00,181.000000,,2013-02-03 22:41:00,
2013-02-03 15:51:00,39.0,20.0,-100.00,WNW,286,5.0,12.0,47,0.00,,,0.00,181.000000,,2013-02-03 22:51:00,
2013-02-03 16:22:00,40.0,20.0,-100.00,West,274,2.0,8.0,45,0.00,,,0.00,163.000000,,2013-02-03 23:22:00,
2013-02-03 16:32:00,40.0,20.0,-100.00,West,274,2.0,8.0,45,0.00,,,0.00,163.000000,,2013-02-03 23:32:00,
2013-02-03 16:41:00,40.0,20.0,-100.00,West,274,2.0,8.0,45,0.00,,,0.00,163.000000,,2013-02-03 23:41:00,
2013-02-03 16:52:00,40.0,20.0,-100.00,West,274,2.0,8.0,45,0.00,,,0.00,163.000000,,2013-02-03 23:52:00,
2013-02-03 17:22:00,40.0,22.0,-100.00,SW,220,3.0,5.0,48,0.00,,,0.00,99.000000,,2013-02-04 00:22:00,
2013-02-03 17:31:00,40.0,22.0,-100.00,SW,220,3.0,5.0,48,0.00,,,0.00,99.000000,,2013-02-04 00:31:00,
2013-02-03 17:41:00,40.0,22.0,-100.00,SW,220,3.0,5.0,48,0.00,,,0.00,99.000000,,2013-02-04 00:41:00,
2013-02-03 17:51:00,40.0,22.0,-100.00,SW,220,3.0,5.0,48,0.00,,,0.00,99.000000,,2013-02-04 00:51:00,
2013-02-03 18:21:00,36.0,21.0,-100.00,NW,312,1.0,6.0,55,0.00,,,0.00,15.000000,,2013-02-04 01:21:00,
2013-02-03 18:31:00,36.0,21.0,-100.00,NW,312,1.0,6.0,55,0.00,,,0.00,15.000000,,2013-02-04 01:31:00,
2013-02-03 18:41:00,36.0,21.0,-100.00,NW,312,1.0,6.0,55,0.00,,,0.00,15.000000,,2013-02-04 01:41:00,
2013-02-03 18:52:00,36.0,21.0,-100.00,NW,312,1.0,6.0,55,0.00,,,0.00,15.000000,,2013-02-04 01:52:00,
2013-02-03 19:21:00,34.0,23.0,-100.00,East,90,2.0,4.0,63,0.00,,,0.00,0.000000,,2013-02-04 02:21:00,
2013-02-03 19:31:00,34.0,23.0,-100.00,East,90,2.0,4.0,63,0.00,,,0.00,0.000000,,2013-02-04 02:31:00,
2013-02-03 19:41:00,34.0,23.0,-100.00,East,90,2.0,4.0,63,0.00,,,0.00,0.000000,,2013-02-04 02:41:00,
2013-02-03 19:52:00,34.0,23.0,-100.00,East,90,2.0,4.0,63,0.00,,,0.00,0.000000,,2013-02-04 02:52:00,
2013-02-03 20:21:00,34.0,24.0,-100.00,NW,319,2.0,4.0,67,0.00,,,0.00,0.000000,,2013-02-04 03:21:00,
2013-02-03 20:32:00,34.0,24.0,-100.00,NW,319,2.0,4.0,67,0.00,,,0.00,0.000000,,2013-02-04 03:32:00,
2013-02-03 20:41:00,34.0,24.0,-100.00,NW,319,2.0,4.0,67,0.00,,,0.00,0.000000,,2013-02-04 03:41:00,
2013-02-03 20:51:00,34.0,24.0,-100.00,NW,319,2.0,4.0,67,0.00,,,0.00,0.000000,,2013-02-04 03:51:00,
2013-02-03 21:21:00,31.0,25.0,-100.00,NNE,13,3.0,4.0,77,0.00,,,0.00,0.000000,,2013-02-04 04:21:00,
2013-02-03 21:31:00,31.0,25.0,-100.00,NNE,13,3.0,4.0,77,0.00,,,0.00,0.000000,,2013-02-04 04:31:00,
2013-02-03 21:41:00,31.0,25.0,-100.00,NNE,13,3.0,4.0,77,0.00,,,0.00,0.000000,,2013-02-04 04:41:00,
2013-02-03 21:52:00,31.0,25.0,-100.00,NNE,13,3.0,4.0,77,0.00,,,0.00,0.000000,,2013-02-04 04:52:00,
2013-02-03 22:22:00,29.0,23.0,-100.00,North,3,5.0,6.0,79,0.00,,,0.00,0.000000,,2013-02-04 05:22:00,
2013-02-03 22:33:00,29.0,23.0,-100.00,North,3,5.0,6.0,79,0.00,,,0.00,0.000000,,2013-02-04 05:33:00,
2013-02-03 22:42:00,29.0,23.0,-100.00,North,3,5.0,6.0,79,0.00,,,0.00,0.000000,,2013-02-04 05:42:00,
2013-02-03 22:51:00,29.0,23.0,-100.00,North,3,5.0,6.0,79,0.00,,,0.00,0.000000,,2013-02-04 05:51:00,
2013-02-03 23:21:00,29.0,25.0,-100.00,North,352,3.0,7.0,83,0.00,,,0.00,0.000000,,2013-02-04 06:21:00,
2013-02-03 23:31:00,29.0,25.0,-100.00,North,352,3.0,7.0,83,0.00,,,0.00,0.000000,,2013-02-04 06:31:00,
2013-02-03 23:41:00,29.0,25.0,-100.00,North,352,3.0,7.0,83,0.00,,,0.00,0.000000,,2013-02-04 06:41:00,
2013-02-03 23:51:00,29.0,25.0,-100.00,North,352,3.0,7.0,83,0.00,,,0.00,0.000000,,2013-02-04 06:51:00,